Location: Albany
(35.0170°S, 117.8920°E)
Time: 10:04:50
(UTC+08:00)

S-56A Canister/Altair - Pass Details

Date: 30 January 2021
Orbit: 632 x 2501 km, 38.9° (Epoch: 25 February)

Event Time Altitude Azimuth Distance (km) Brightness Sun altitude
Rises 14:33:32 0° 267° (W) 5,563 12.4 55.9°
Reaches altitude 10° 14:36:54 10° 265° (W) 4,745 12.2 55.3°
Maximum altitude 14:51:10 76° 179° (S) 2,557 11.0 52.5°
Drops below altitude 10° 15:06:10 10° 92° (E) 4,951 11.4 49.6°
Sets 15:09:45 0° 90° (E) 5,808 11.6 48.9°
